CW5112 Weather Reports


Display with metric or nautical units.
time (UTC)temp
F
wind
direction
speed
MPH
gust
MPH
rain 1hr
in
rain 24hr
in
rain mn
in
humidity
%
barometer
mb
20260507194616 58 201 0.0 0.0 0.01 0.06 0.06 89 1008.4
20260507193049 57 217 0.0 0.0 0.02 0.06 0.06 89 1008.6
20260507191550 57 223 0.0 0.0 0.02 0.06 0.06 91 1008.9
20260507190052 55 188 0.0 0.0 0.02 0.06 0.06 91 1009.1
20260507184545 55 157 0.0 0.0 0.01 0.05 0.05 90 1009.3
20260507183047 56 157 0.0 0.0 0.00 0.04 0.04 91 1009.3
20260507181552 56 157 0.0 0.0 0.00 0.04 0.04 91 1009.2
20260507180044 56 38 0.0 0.0 0.02 0.04 0.04 91 1009.4
20260507174554 55 267 0.0 0.0 0.02 0.04 0.04 90 1009.2
20260507173113 55 266 0.0 0.0 0.02 0.04 0.04 91 1009.3
20260507171547 55 298 0.0 0.0 0.02 0.04 0.04 91 1009.5
20260507170041 55 298 0.0 0.0 0.02 0.02 0.02 90 1009.7
20260507164547 56 298 0.0 0.0 0.02 0.02 0.02 89 1009.5
20260507163038 56 26 0.0 0.0 0.02 0.02 0.02 88 1009.7
20260507161553 56 11 0.0 1.0 0.02 0.02 0.02 87 1009.6
20260507160039 57 315 0.0 0.0 0.00 0.00 0.00 83 1009.9
20260507154535 57 5 0.0 1.0 0.00 0.00 0.00 84 1010.0
20260507153033 57 281 0.0 0.0 0.00 0.00 0.00 84 1010.0
20260507151533 57 338 0.0 0.0 0.00 0.00 0.00 84 1010.0
20260507150032 57 302 0.0 0.0 0.00 0.00 0.00 84 1009.9
20260507144534 57 15 0.0 0.0 0.00 0.00 0.00 82 1009.9
20260507143028 58 267 0.0 0.0 0.00 0.00 0.00 83 1009.7
20260507141528 58 190 0.0 0.0 0.00 0.00 0.00 82 1009.7
20260507140027 58 246 0.0 0.0 0.00 0.00 0.00 82 1009.9
20260507134526 59 321 0.0 0.0 0.00 0.00 0.00 82 1010.0
20260507133028 59 327 0.0 0.0 0.00 0.00 0.00 82 1010.1
20260507131530 59 335 0.0 0.0 0.00 0.00 0.00 81 1010.2
20260507130026 59 237 0.0 0.0 0.00 0.00 0.00 84 1009.8
20260507124521 59 52 0.0 0.0 0.00 0.00 0.00 85 1010.0
20260507123021 59 309 0.0 0.0 0.00 0.00 0.00 85 1010.0
20260507121520 59 304 0.0 0.0 0.00 0.00 0.00 84 1010.1
20260507120036 59 314 0.0 0.0 0.00 0.00 0.00 86 1010.1
20260507114517 58 328 0.0 0.0 0.00 0.06 0.00 87 1010.0
20260507113034 58 286 0.0 0.0 0.00 0.06 0.00 88 1009.7
20260507111514 58 355 0.0 0.0 0.00 0.06 0.00 87 1009.5
20260507110012 58 348 0.0 0.0 0.00 0.06 0.00 86 1009.4
20260507104514 58 348 0.0 0.0 0.00 0.06 0.00 86 1009.3
20260507103008 58 348 0.0 0.0 0.00 0.06 0.00 86 1009.0
20260507101507 59 360 0.0 0.0 0.00 0.06 0.00 85 1008.9
20260507100005 59 34 0.0 0.0 0.00 0.06 0.00 86 1009.2
20260507094503 59 34 0.0 0.0 0.00 0.06 0.00 85 1009.2
20260507093002 59 35 0.0 0.0 0.00 0.06 0.00 84 1009.4
20260507091501 59 346 0.0 0.0 0.00 0.06 0.00 86 1008.9
20260507090100 60 11 0.0 0.0 0.00 0.06 0.00 88 1008.3
20260507084603 60 15 0.0 0.0 0.00 0.06 0.00 90 1009.0
20260507083057 60 36 0.0 0.0 0.00 0.06 0.00 89 1009.0
20260507081555 61 60 0.0 0.0 0.00 0.06 0.00 89 1008.9
20260507080054 61 61 0.0 0.0 0.00 0.06 0.00 88 1008.7
20260507074553 61 5 0.0 0.0 0.00 0.06 0.00 89 1009.0
20260507073125 61 119 0.0 0.0 0.00 0.06 0.00 91 1008.6
20260507071551 62 119 0.0 0.0 0.00 0.06 0.00 91 1008.5
20260507070050 62 127 0.0 0.0 0.00 0.06 0.00 92 1008.6
20260507064604 62 127 0.0 0.0 0.00 0.06 0.00 92 1008.6
20260507063056 63 127 0.0 0.0 0.00 0.06 0.00 92 1008.5
20260507061545 63 192 0.0 0.0 0.00 0.06 0.00 91 1008.5
20260507060044 63 192 0.0 0.0 0.00 0.06 0.00 91 1008.8
20260507054543 63 192 0.0 0.0 0.00 0.06 0.00 90 1009.3
20260507053043 64 192 0.0 0.0 0.00 0.06 0.00 88 1009.5
20260507051540 65 188 0.0 0.0 0.00 0.06 0.00 85 1008.9
20260507050036 64 236 0.0 2.0 0.00 0.06 0.00 86 1008.5
20260507044533 63 224 0.0 0.0 0.00 0.06 0.00 90 1008.2
20260507043032 63 191 0.0 0.0 0.00 0.06 0.00 90 1008.1
20260507041538 64 219 0.0 0.0 0.00 0.06 0.00 90 1008.3
20260507040026 64 219 0.0 0.0 0.00 0.06 0.00 90 1008.5
20260507034532 63 204 0.0 0.0 0.00 0.06 0.06 91 1009.2
20260507033025 63 181 0.0 0.0 0.00 0.06 0.06 90 1009.7
20260507031524 64 192 0.0 0.0 0.00 0.06 0.06 89 1010.1
20260507030024 65 157 0.0 0.0 0.00 0.06 0.06 86 1009.7
20260507024523 67 184 0.0 0.0 0.00 0.06 0.06 83 1009.7
20260507023023 67 196 0.0 0.0 0.00 0.06 0.06 84 1009.7
20260507021522 68 207 0.0 0.0 0.00 0.06 0.06 81 1009.4
20260507020023 69 230 0.0 1.0 0.00 0.06 0.06 79 1009.3
20260507014524 68 199 0.0 0.0 0.00 0.06 0.06 79 1008.8
20260507013020 68 202 0.0 10.0 0.00 0.06 0.06 81 1008.0
20260507011520 68 211 0.0 0.0 0.00 0.06 0.06 81 1007.8
20260507010029 67 181 0.0 0.0 0.00 0.06 0.06 83 1008.5
20260507004518 67 162 0.0 0.0 0.00 0.06 0.06 84 1008.4
20260507003018 67 146 0.0 1.0 0.00 0.06 0.06 83 1008.2
20260507001517 68 182 0.0 0.0 0.00 0.06 0.06 83 1008.3
20260507000018 68 207 0.0 0.0 0.00 0.06 0.06 82 1007.9
20260506234535 69 168 0.0 1.0 0.00 0.06 0.06 79 1008.1
20260506233017 69 167 0.0 1.0 0.00 0.06 0.06 81 1008.0
20260506231516 70 212 0.0 0.0 0.00 0.06 0.06 79 1007.9
20260506230017 71 212 0.0 5.0 0.00 0.06 0.06 76 1008.2
20260506224524 71 193 0.0 1.0 0.00 0.06 0.06 77 1008.3
20260506223014 71 200 0.0 0.0 0.00 0.06 0.06 75 1008.0
20260506221514 71 210 0.0 1.0 0.00 0.06 0.06 78 1008.2
20260506220028 72 218 0.0 5.0 0.00 0.06 0.06 76 1007.9
20260506214512 72 221 0.0 0.0 0.00 0.06 0.06 78 1007.8
20260506213010 70 207 0.0 0.0 0.00 0.06 0.06 81 1007.7
20260506211517 70 198 0.0 0.0 0.00 0.06 0.06 80 1007.7
20260506210009 70 182 0.0 0.0 0.00 0.06 0.06 79 1007.7
20260506204508 70 196 0.0 4.0 0.00 0.06 0.06 78 1007.8
20260506203008 71 192 0.0 2.0 0.00 0.06 0.06 79 1007.8
20260506201506 70 124 0.0 8.0 0.00 0.06 0.06 77 1007.7
20260506200007 70 202 0.0 1.0 0.00 0.06 0.06 79 1007.9